contact:dominique.lefevre@mio.osupytheas.fr, maurice.libes@osupytheas.fr, didier.mallarino@osupytheas.fr
Project:EMSO http://www.emso-fr.org/EMSO-France
Depth: 2436.0 m
Title:EMSO Ligure Ouest : Data MII capteur MICROCAT
DateTime_Computer,Latitude,Longitude,Temperature,Conductivity,Pressure,DateTime_Instrument
DateTime_Computer,Latitude,Longitude,degC,S m-1,dbar,DateTime_Instrument
2024-04-28T00:02:37Z,42.805,6.029,13.3070,4.60178,2471.043,2024-4-28T02:05:18Z
2024-04-28T00:05:40Z,42.805,6.029,13.3071,4.60176,2471.057,2024-4-28T02:08:21Z
2024-04-28T00:08:43Z,42.805,6.029,13.3073,4.60173,2471.02,2024-4-28T02:11:24Z
2024-04-28T00:11:46Z,42.805,6.029,13.3070,4.60177,2471.02,2024-4-28T02:14:27Z
2024-04-28T00:14:49Z,42.805,6.029,13.3073,4.60168,2471.043,2024-4-28T02:17:30Z
2024-04-28T00:17:52Z,42.805,6.029,13.3079,4.60184,2471.01,2024-4-28T02:20:34Z
2024-04-28T00:20:55Z,42.805,6.029,13.3074,4.60178,2470.983,2024-4-28T02:23:37Z
2024-04-28T00:23:59Z,42.805,6.029,13.3089,4.60177,2471.02,2024-4-28T02:26:40Z
2024-04-28T00:27:02Z,42.805,6.029,13.3071,4.60168,2471.034,2024-4-28T02:29:43Z
2024-04-28T00:30:05Z,42.805,6.029,13.3073,4.60190,2471.057,2024-4-28T02:32:46Z
2024-04-28T00:33:08Z,42.805,6.029,13.3077,4.60182,2470.973,2024-4-28T02:35:49Z
2024-04-28T00:36:11Z,42.805,6.029,13.3077,4.60178,2470.997,2024-4-28T02:38:52Z
2024-04-28T00:39:14Z,42.805,6.029,13.3075,4.60180,2471.034,2024-4-28T02:41:55Z
2024-04-28T00:42:17Z,42.805,6.029,13.3076,4.60182,2471.057,2024-4-28T02:44:58Z
2024-04-28T00:45:20Z,42.805,6.029,13.3079,4.60191,2471.02,2024-4-28T02:48:01Z
2024-04-28T00:48:23Z,42.805,6.029,13.3081,4.60195,2471.02,2024-4-28T02:51:04Z
2024-04-28T00:51:26Z,42.805,6.029,13.3079,4.60185,2470.987,2024-4-28T02:54:07Z
2024-04-28T00:54:29Z,42.805,6.029,13.3075,4.60187,2471.01,2024-4-28T02:57:11Z
2024-04-28T00:57:32Z,42.805,6.029,13.3069,4.60193,2471.02,2024-4-28T03:00:14Z
2024-04-28T01:00:35Z,42.805,6.029,13.3076,4.60192,2471.034,2024-4-28T03:03:17Z
2024-04-28T01:03:39Z,42.805,6.029,13.3075,4.60181,2470.987,2024-4-28T03:06:20Z
2024-04-28T01:06:42Z,42.805,6.029,13.3085,4.60209,2470.997,2024-4-28T03:09:23Z
2024-04-28T01:09:45Z,42.805,6.029,13.3084,4.60202,2470.987,2024-4-28T03:12:26Z
2024-04-28T01:12:48Z,42.805,6.029,13.3080,4.60211,2470.973,2024-4-28T03:15:29Z
2024-04-28T01:15:51Z,42.805,6.029,13.3085,4.60203,2471.01,2024-4-28T03:18:32Z
2024-04-28T01:18:54Z,42.805,6.029,13.3076,4.60182,2470.997,2024-4-28T03:21:35Z
2024-04-28T01:21:57Z,42.805,6.029,13.3090,4.60204,2470.987,2024-4-28T03:24:38Z
2024-04-28T01:25:00Z,42.805,6.029,13.3088,4.60208,2470.987,2024-4-28T03:27:41Z
2024-04-28T01:28:03Z,42.805,6.029,13.3077,4.60184,2470.964,2024-4-28T03:30:44Z
2024-04-28T01:31:06Z,42.805,6.029,13.3084,4.60188,2470.973,2024-4-28T03:33:48Z
2024-04-28T01:34:09Z,42.805,6.029,13.3078,4.60178,2470.973,2024-4-28T03:36:51Z
2024-04-28T01:37:12Z,42.805,6.029,13.3074,4.60177,2470.95,2024-4-28T03:39:54Z
2024-04-28T01:40:16Z,42.805,6.029,13.3077,4.60195,2470.973,2024-4-28T03:42:57Z
2024-04-28T01:43:19Z,42.805,6.029,13.3084,4.60198,2470.973,2024-4-28T03:46:00Z
2024-04-28T01:46:22Z,42.805,6.029,13.3078,4.60192,2470.973,2024-4-28T03:49:03Z
2024-04-28T01:49:25Z,42.805,6.029,13.3085,4.60194,2470.95,2024-4-28T03:52:06Z
2024-04-28T01:52:28Z,42.805,6.029,13.3090,4.60187,2470.973,2024-4-28T03:55:09Z
2024-04-28T01:55:31Z,42.805,6.029,13.3084,4.60203,2470.987,2024-4-28T03:58:12Z
2024-04-28T01:58:34Z,42.805,6.029,13.3096,4.60199,2470.973,2024-4-28T04:01:15Z
2024-04-28T02:01:37Z,42.805,6.029,13.3082,4.60203,2470.964,2024-4-28T04:04:18Z
2024-04-28T02:04:40Z,42.805,6.029,13.3085,4.60210,2470.95,2024-4-28T04:07:21Z
2024-04-28T02:07:43Z,42.805,6.029,13.3084,4.60197,2470.973,2024-4-28T04:10:24Z
2024-04-28T02:10:46Z,42.805,6.029,13.3091,4.60208,2470.95,2024-4-28T04:13:28Z
2024-04-28T02:13:49Z,42.805,6.029,13.3089,4.60217,2470.927,2024-4-28T04:16:31Z
2024-04-28T02:16:52Z,42.805,6.029,13.3089,4.60210,2470.95,2024-4-28T04:19:34Z
2024-04-28T02:19:56Z,42.805,6.029,13.3079,4.60202,2470.987,2024-4-28T04:22:37Z
2024-04-28T02:22:59Z,42.805,6.029,13.3089,4.60213,2470.973,2024-4-28T04:25:40Z
2024-04-28T02:26:02Z,42.805,6.029,13.3093,4.60215,2470.987,2024-4-28T04:28:43Z
2024-04-28T02:29:05Z,42.805,6.029,13.3093,4.60207,2470.94,2024-4-28T04:31:46Z
2024-04-28T02:32:08Z,42.805,6.029,13.3076,4.60209,2470.95,2024-4-28T04:34:49Z
2024-04-28T02:35:11Z,42.805,6.029,13.3086,4.60210,2470.964,2024-4-28T04:37:52Z
2024-04-28T02:38:14Z,42.805,6.029,13.3098,4.60223,2470.95,2024-4-28T04:40:55Z
2024-04-28T02:41:17Z,42.805,6.029,13.3096,4.60205,2470.95,2024-4-28T04:43:58Z
2024-04-28T02:44:20Z,42.805,6.029,13.3091,4.60225,2470.987,2024-4-28T04:47:01Z
2024-04-28T02:47:23Z,42.805,6.029,13.3104,4.60230,2470.964,2024-4-28T04:50:04Z
2024-04-28T02:50:26Z,42.805,6.029,13.3128,4.60243,2470.973,2024-4-28T04:53:08Z
2024-04-28T02:53:29Z,42.805,6.029,13.3110,4.60231,2470.964,2024-4-28T04:56:11Z
2024-04-28T02:56:33Z,42.805,6.029,13.3085,4.60214,2470.927,2024-4-28T04:59:14Z
2024-04-28T02:59:36Z,42.805,6.029,13.3091,4.60208,2470.964,2024-4-28T05:02:17Z
2024-04-28T03:02:39Z,42.805,6.029,13.3104,4.60228,2470.917,2024-4-28T05:05:20Z
2024-04-28T03:05:42Z,42.805,6.029,13.3096,4.60209,2470.94,2024-4-28T05:08:23Z
2024-04-28T03:08:45Z,42.805,6.029,13.3101,4.60235,2470.94,2024-4-28T05:11:26Z
2024-04-28T03:11:48Z,42.805,6.029,13.3100,4.60256,2470.94,2024-4-28T05:14:29Z
2024-04-28T03:14:51Z,42.805,6.029,13.3115,4.60213,2470.927,2024-4-28T05:17:32Z
2024-04-28T03:17:54Z,42.805,6.029,13.3120,4.60225,2470.927,2024-4-28T05:20:35Z
2024-04-28T03:20:57Z,42.805,6.029,13.3100,4.60251,2470.927,2024-4-28T05:23:38Z
2024-04-28T03:24:00Z,42.805,6.029,13.3119,4.60232,2470.927,2024-4-28T05:26:41Z
2024-04-28T03:27:03Z,42.805,6.029,13.3109,4.60259,2470.927,2024-4-28T05:29:44Z
2024-04-28T03:30:06Z,42.805,6.029,13.3104,4.60253,2470.927,2024-4-28T05:32:48Z
2024-04-28T03:33:09Z,42.805,6.029,13.3119,4.60192,2470.904,2024-4-28T05:35:51Z
2024-04-28T03:36:13Z,42.805,6.029,13.3103,4.60233,2470.917,2024-4-28T05:38:54Z
2024-04-28T03:39:16Z,42.805,6.029,13.3105,4.60235,2470.904,2024-4-28T05:41:57Z
2024-04-28T03:42:19Z,42.805,6.029,13.3116,4.60236,2470.917,2024-4-28T05:45:00Z
2024-04-28T03:45:22Z,42.805,6.029,13.3120,4.60223,2470.94,2024-4-28T05:48:03Z
2024-04-28T03:48:25Z,42.805,6.029,13.3116,4.60201,2470.95,2024-4-28T05:51:06Z
2024-04-28T03:51:28Z,42.805,6.029,13.3128,4.60181,2470.917,2024-4-28T05:54:09Z
2024-04-28T03:54:31Z,42.805,6.029,13.3109,4.60167,2470.904,2024-4-28T05:57:12Z
2024-04-28T03:57:34Z,42.805,6.029,13.3098,4.60204,2470.917,2024-4-28T06:00:15Z
2024-04-28T04:00:36Z,42.805,6.029,13.3097,4.60183,2470.894,2024-4-28T06:03:17Z
2024-04-28T04:03:39Z,42.805,6.029,13.3099,4.60189,2470.904,2024-4-28T06:06:20Z
2024-04-28T04:06:42Z,42.805,6.029,13.3084,4.60192,2470.917,2024-4-28T06:09:23Z
2024-04-28T04:09:45Z,42.805,6.029,13.3100,4.60190,2470.904,2024-4-28T06:12:26Z
2024-04-28T04:12:48Z,42.805,6.029,13.3090,4.60212,2470.95,2024-4-28T06:15:29Z
2024-04-28T04:15:51Z,42.805,6.029,13.3104,4.60175,2470.964,2024-4-28T06:18:32Z
2024-04-28T04:18:54Z,42.805,6.029,13.3109,4.60178,2470.894,2024-4-28T06:21:35Z
2024-04-28T04:21:57Z,42.805,6.029,13.3091,4.60202,2470.894,2024-4-28T06:24:38Z
2024-04-28T04:25:00Z,42.805,6.029,13.3102,4.60199,2470.917,2024-4-28T06:27:41Z
2024-04-28T04:28:03Z,42.805,6.029,13.3104,4.60188,2470.88,2024-4-28T06:30:44Z
2024-04-28T04:31:06Z,42.805,6.029,13.3090,4.60194,2470.894,2024-4-28T06:33:48Z
2024-04-28T04:34:09Z,42.805,6.029,13.3089,4.60186,2470.904,2024-4-28T06:36:51Z
2024-04-28T04:37:12Z,42.805,6.029,13.3093,4.60218,2470.894,2024-4-28T06:39:54Z
2024-04-28T04:40:16Z,42.805,6.029,13.3107,4.60215,2470.904,2024-4-28T06:42:57Z
2024-04-28T04:43:19Z,42.805,6.029,13.3109,4.60188,2470.917,2024-4-28T06:46:00Z
2024-04-28T04:46:22Z,42.805,6.029,13.3087,4.60185,2470.917,2024-4-28T06:49:03Z
2024-04-28T04:49:25Z,42.805,6.029,13.3096,4.60195,2470.88,2024-4-28T06:52:06Z
2024-04-28T04:52:28Z,42.805,6.029,13.3096,4.60194,2470.904,2024-4-28T06:55:09Z
2024-04-28T04:55:31Z,42.805,6.029,13.3106,4.60181,2470.904,2024-4-28T06:58:12Z
2024-04-28T04:58:34Z,42.805,6.029,13.3098,4.60175,2470.94,2024-4-28T07:01:15Z
2024-04-28T05:01:37Z,42.805,6.029,13.3098,4.60178,2470.894,2024-4-28T07:04:18Z
2024-04-28T05:04:40Z,42.805,6.029,13.3085,4.60191,2470.927,2024-4-28T07:07:21Z
2024-04-28T05:07:43Z,42.805,6.029,13.3083,4.60183,2470.894,2024-4-28T07:10:24Z
2024-04-28T05:10:46Z,42.805,6.029,13.3076,4.60190,2470.904,2024-4-28T07:13:28Z
2024-04-28T05:13:49Z,42.805,6.029,13.3089,4.60188,2470.904,2024-4-28T07:16:31Z
2024-04-28T05:16:52Z,42.805,6.029,13.3109,4.60173,2470.917,2024-4-28T07:19:34Z
2024-04-28T05:19:56Z,42.805,6.029,13.3078,4.60172,2470.927,2024-4-28T07:22:37Z
2024-04-28T05:22:59Z,42.805,6.029,13.3084,4.60172,2470.904,2024-4-28T07:25:40Z
2024-04-28T05:26:02Z,42.805,6.029,13.3091,4.60158,2470.917,2024-4-28T07:28:43Z
2024-04-28T05:29:05Z,42.805,6.029,13.3084,4.60162,2470.917,2024-4-28T07:31:46Z
2024-04-28T05:32:08Z,42.805,6.029,13.3085,4.60164,2470.917,2024-4-28T07:34:49Z
2024-04-28T05:35:11Z,42.805,6.029,13.3080,4.60168,2470.894,2024-4-28T07:37:52Z
2024-04-28T05:38:14Z,42.805,6.029,13.3075,4.60171,2470.927,2024-4-28T07:40:55Z
2024-04-28T05:41:17Z,42.805,6.029,13.3081,4.60155,2470.917,2024-4-28T07:43:58Z
2024-04-28T05:44:20Z,42.805,6.029,13.3091,4.60155,2470.94,2024-4-28T07:47:01Z
2024-04-28T05:47:23Z,42.805,6.029,13.3089,4.60154,2470.904,2024-4-28T07:50:04Z
2024-04-28T05:50:26Z,42.805,6.029,13.3077,4.60163,2470.94,2024-4-28T07:53:08Z
2024-04-28T05:53:29Z,42.805,6.029,13.3078,4.60168,2470.917,2024-4-28T07:56:11Z
2024-04-28T05:56:33Z,42.805,6.029,13.3082,4.60158,2470.894,2024-4-28T07:59:14Z
2024-04-28T05:59:36Z,42.805,6.029,13.3084,4.60165,2470.904,2024-4-28T08:02:17Z
2024-04-28T06:02:39Z,42.805,6.029,13.3100,4.60159,2470.88,2024-4-28T08:05:20Z
2024-04-28T06:05:42Z,42.805,6.029,13.3085,4.60157,2470.927,2024-4-28T08:08:23Z
2024-04-28T06:08:45Z,42.805,6.029,13.3087,4.60155,2470.927,2024-4-28T08:11:26Z
2024-04-28T06:11:48Z,42.805,6.029,13.3082,4.60147,2470.917,2024-4-28T08:14:29Z
2024-04-28T06:14:51Z,42.805,6.029,13.3079,4.60152,2470.964,2024-4-28T08:17:32Z
2024-04-28T06:17:54Z,42.805,6.029,13.3076,4.60165,2470.927,2024-4-28T08:20:35Z
2024-04-28T06:20:57Z,42.805,6.029,13.3085,4.60158,2470.964,2024-4-28T08:23:38Z
2024-04-28T06:24:00Z,42.805,6.029,13.3087,4.60170,2470.964,2024-4-28T08:26:41Z
2024-04-28T06:27:03Z,42.805,6.029,13.3082,4.60163,2470.964,2024-4-28T08:29:45Z
2024-04-28T06:30:06Z,42.805,6.029,13.3085,4.60162,2470.927,2024-4-28T08:32:48Z
2024-04-28T06:33:10Z,42.805,6.029,13.3075,4.60164,2470.927,2024-4-28T08:35:51Z
2024-04-28T06:36:13Z,42.805,6.029,13.3082,4.60160,2470.964,2024-4-28T08:38:54Z
2024-04-28T06:39:16Z,42.805,6.029,13.3091,4.60168,2470.95,2024-4-28T08:41:57Z
2024-04-28T06:42:19Z,42.805,6.029,13.3090,4.60167,2470.964,2024-4-28T08:45:00Z
2024-04-28T06:45:22Z,42.805,6.029,13.3093,4.60162,2470.964,2024-4-28T08:48:03Z
2024-04-28T06:48:25Z,42.805,6.029,13.3079,4.60149,2470.927,2024-4-28T08:51:06Z
2024-04-28T06:51:28Z,42.805,6.029,13.3067,4.60150,2470.964,2024-4-28T08:54:09Z
2024-04-28T06:54:31Z,42.805,6.029,13.3067,4.60156,2470.927,2024-4-28T08:57:12Z
2024-04-28T06:57:34Z,42.805,6.029,13.3076,4.60194,2470.927,2024-4-28T09:00:15Z
2024-04-28T07:00:37Z,42.805,6.029,13.3093,4.60173,2470.987,2024-4-28T09:03:18Z
2024-04-28T07:03:40Z,42.805,6.029,13.3114,4.60161,2470.95,2024-4-28T09:06:21Z
2024-04-28T07:06:43Z,42.805,6.029,13.3105,4.60164,2470.94,2024-4-28T09:09:25Z
2024-04-28T07:09:46Z,42.805,6.029,13.3095,4.60167,2470.927,2024-4-28T09:12:28Z
2024-04-28T07:12:50Z,42.805,6.029,13.3079,4.60178,2470.94,2024-4-28T09:15:31Z
2024-04-28T07:15:53Z,42.805,6.029,13.3104,4.60185,2470.987,2024-4-28T09:18:34Z
2024-04-28T07:18:56Z,42.805,6.029,13.3092,4.60185,2470.927,2024-4-28T09:21:37Z
2024-04-28T07:21:59Z,42.805,6.029,13.3106,4.60169,2470.973,2024-4-28T09:24:40Z
2024-04-28T07:25:02Z,42.805,6.029,13.3093,4.60175,2470.95,2024-4-28T09:27:43Z
2024-04-28T07:28:05Z,42.805,6.029,13.3097,4.60162,2470.973,2024-4-28T09:30:46Z
2024-04-28T07:31:08Z,42.805,6.029,13.3085,4.60165,2470.987,2024-4-28T09:33:49Z
2024-04-28T07:34:11Z,42.805,6.029,13.3061,4.60200,2470.964,2024-4-28T09:36:52Z
2024-04-28T07:37:14Z,42.805,6.029,13.3063,4.60194,2471.01,2024-4-28T09:39:55Z
2024-04-28T07:40:17Z,42.805,6.029,13.3051,4.60185,2470.997,2024-4-28T09:42:58Z
2024-04-28T07:43:20Z,42.805,6.029,13.3046,4.60161,2470.997,2024-4-28T09:46:02Z
2024-04-28T07:46:23Z,42.805,6.029,13.3047,4.60151,2470.973,2024-4-28T09:49:05Z
2024-04-28T07:49:26Z,42.805,6.029,13.3050,4.60180,2470.973,2024-4-28T09:52:08Z
2024-04-28T07:52:30Z,42.805,6.029,13.3044,4.60192,2470.973,2024-4-28T09:55:11Z
2024-04-28T07:55:33Z,42.805,6.029,13.3046,4.60150,2471.01,2024-4-28T09:58:14Z
2024-04-28T07:58:36Z,42.805,6.029,13.3045,4.60152,2470.927,2024-4-28T10:01:17Z
2024-04-28T08:01:37Z,42.805,6.029,13.3041,4.60147,2470.973,2024-4-28T10:04:18Z
2024-04-28T08:04:40Z,42.805,6.029,13.3043,4.60139,2470.973,2024-4-28T10:07:21Z
2024-04-28T08:07:43Z,42.805,6.029,13.3042,4.60145,2471.01,2024-4-28T10:10:24Z
2024-04-28T08:10:46Z,42.805,6.029,13.3043,4.60140,2470.973,2024-4-28T10:13:27Z
2024-04-28T08:13:49Z,42.805,6.029,13.3039,4.60142,2470.997,2024-4-28T10:16:31Z
2024-04-28T08:16:52Z,42.805,6.029,13.3043,4.60135,2471.01,2024-4-28T10:19:34Z
2024-04-28T08:19:56Z,42.805,6.029,13.3047,4.60134,2471.01,2024-4-28T10:22:37Z
2024-04-28T08:22:59Z,42.805,6.029,13.3043,4.60135,2470.987,2024-4-28T10:25:40Z
2024-04-28T08:26:02Z,42.805,6.029,13.3041,4.60131,2471.01,2024-4-28T10:28:43Z
2024-04-28T08:29:05Z,42.805,6.029,13.3040,4.60132,2470.997,2024-4-28T10:31:46Z
2024-04-28T08:32:08Z,42.805,6.029,13.3041,4.60132,2471.01,2024-4-28T10:34:49Z
2024-04-28T08:35:11Z,42.805,6.029,13.3042,4.60132,2470.959,2024-4-28T10:37:52Z
2024-04-28T08:38:14Z,42.805,6.029,13.3043,4.60132,2470.997,2024-4-28T10:40:55Z
2024-04-28T08:41:17Z,42.805,6.029,13.3042,4.60131,2471.034,2024-4-28T10:43:58Z
2024-04-28T08:44:20Z,42.805,6.029,13.3043,4.60133,2470.997,2024-4-28T10:47:01Z
2024-04-28T08:47:23Z,42.805,6.029,13.3042,4.60132,2470.997,2024-4-28T10:50:05Z
2024-04-28T08:50:26Z,42.805,6.029,13.3044,4.60132,2471.01,2024-4-28T10:53:08Z
2024-04-28T08:53:29Z,42.805,6.029,13.3046,4.60135,2470.987,2024-4-28T10:56:11Z
2024-04-28T08:56:33Z,42.805,6.029,13.3043,4.60132,2470.959,2024-4-28T10:59:14Z
2024-04-28T08:59:36Z,42.805,6.029,13.3047,4.60132,2470.997,2024-4-28T11:02:17Z
2024-04-28T09:02:39Z,42.805,6.029,13.3041,4.60133,2470.997,2024-4-28T11:05:20Z
2024-04-28T09:05:42Z,42.805,6.029,13.3044,4.60132,2471.034,2024-4-28T11:08:23Z
2024-04-28T09:08:45Z,42.805,6.029,13.3043,4.60135,2470.997,2024-4-28T11:11:26Z
2024-04-28T09:11:48Z,42.805,6.029,13.3047,4.60135,2471.01,2024-4-28T11:14:29Z
2024-04-28T09:14:51Z,42.805,6.029,13.3048,4.60135,2471.057,2024-4-28T11:17:32Z
2024-04-28T09:17:54Z,42.805,6.029,13.3048,4.60135,2470.997,2024-4-28T11:20:35Z
2024-04-28T09:20:57Z,42.805,6.029,13.3054,4.60137,2471.01,2024-4-28T11:23:38Z
2024-04-28T09:24:00Z,42.805,6.029,13.3046,4.60137,2470.997,2024-4-28T11:26:42Z
2024-04-28T09:27:03Z,42.805,6.029,13.3049,4.60135,2470.973,2024-4-28T11:29:45Z
2024-04-28T09:30:06Z,42.805,6.029,13.3046,4.60133,2470.983,2024-4-28T11:32:48Z
2024-04-28T09:33:10Z,42.805,6.029,13.3046,4.60135,2470.987,2024-4-28T11:35:51Z
2024-04-28T09:36:13Z,42.805,6.029,13.3045,4.60137,2471.007,2024-4-28T11:38:54Z
2024-04-28T09:39:16Z,42.805,6.029,13.3048,4.60134,2470.997,2024-4-28T11:41:57Z
2024-04-28T09:42:19Z,42.805,6.029,13.3048,4.60134,2470.997,2024-4-28T11:45:00Z
2024-04-28T09:45:22Z,42.805,6.029,13.3045,4.60138,2470.959,2024-4-28T11:48:03Z
2024-04-28T09:48:25Z,42.805,6.029,13.3044,4.60135,2470.997,2024-4-28T11:51:06Z
2024-04-28T09:51:28Z,42.805,6.029,13.3042,4.60133,2470.997,2024-4-28T11:54:09Z
2024-04-28T09:54:31Z,42.805,6.029,13.3047,4.60134,2470.95,2024-4-28T11:57:12Z
2024-04-28T09:57:34Z,42.805,6.029,13.3048,4.60135,2470.997,2024-4-28T12:00:15Z
2024-04-28T10:00:37Z,42.805,6.029,13.3050,4.60135,2471.01,2024-4-28T12:03:19Z
2024-04-28T10:03:40Z,42.805,6.029,13.3051,4.60135,2470.997,2024-4-28T12:06:22Z
2024-04-28T10:06:43Z,42.805,6.029,13.3048,4.60135,2470.987,2024-4-28T12:09:25Z
2024-04-28T10:09:47Z,42.805,6.029,13.3052,4.60137,2470.973,2024-4-28T12:12:28Z
2024-04-28T10:12:50Z,42.805,6.029,13.3044,4.60137,2471.01,2024-4-28T12:15:31Z
2024-04-28T10:15:53Z,42.805,6.029,13.3057,4.60149,2471.034,2024-4-28T12:18:34Z
2024-04-28T10:18:56Z,42.805,6.029,13.3063,4.60152,2470.997,2024-4-28T12:21:37Z
2024-04-28T10:21:59Z,42.805,6.029,13.3066,4.60157,2470.987,2024-4-28T12:24:40Z
2024-04-28T10:25:02Z,42.805,6.029,13.3069,4.60159,2470.987,2024-4-28T12:27:43Z
2024-04-28T10:28:05Z,42.805,6.029,13.3072,4.60161,2470.95,2024-4-28T12:30:46Z
2024-04-28T10:31:08Z,42.805,6.029,13.3073,4.60160,2470.987,2024-4-28T12:33:49Z
2024-04-28T10:34:11Z,42.805,6.029,13.3070,4.60160,2470.987,2024-4-28T12:36:52Z
2024-04-28T10:37:14Z,42.805,6.029,13.3070,4.60162,2470.987,2024-4-28T12:39:56Z
2024-04-28T10:40:17Z,42.805,6.029,13.3069,4.60163,2470.987,2024-4-28T12:42:59Z
2024-04-28T10:43:20Z,42.805,6.029,13.3071,4.60158,2470.987,2024-4-28T12:46:02Z
2024-04-28T10:46:24Z,42.805,6.029,13.3071,4.60160,2470.95,2024-4-28T12:49:05Z
2024-04-28T10:49:27Z,42.805,6.029,13.3071,4.60162,2470.95,2024-4-28T12:52:08Z
2024-04-28T10:52:30Z,42.805,6.029,13.3070,4.60161,2470.987,2024-4-28T12:55:11Z
2024-04-28T10:55:33Z,42.805,6.029,13.3070,4.60162,2470.927,2024-4-28T12:58:14Z
2024-04-28T10:58:36Z,42.805,6.029,13.3075,4.60162,2470.927,2024-4-28T13:01:17Z
2024-04-28T11:01:39Z,42.805,6.029,13.3070,4.60161,2470.95,2024-4-28T13:04:20Z
2024-04-28T11:04:42Z,42.805,6.029,13.3073,4.60167,2470.997,2024-4-28T13:07:23Z
2024-04-28T11:07:45Z,42.805,6.029,13.3070,4.60165,2470.964,2024-4-28T13:10:26Z
2024-04-28T11:10:48Z,42.805,6.029,13.3070,4.60163,2470.964,2024-4-28T13:13:29Z
2024-04-28T11:13:51Z,42.805,6.029,13.3072,4.60163,2470.917,2024-4-28T13:16:33Z
2024-04-28T11:16:54Z,42.805,6.029,13.3076,4.60165,2470.95,2024-4-28T13:19:36Z
2024-04-28T11:19:57Z,42.805,6.029,13.3073,4.60163,2470.936,2024-4-28T13:22:39Z
2024-04-28T11:23:01Z,42.805,6.029,13.3075,4.60166,2470.927,2024-4-28T13:25:42Z
2024-04-28T11:26:04Z,42.805,6.029,13.3076,4.60165,2470.95,2024-4-28T13:28:45Z
2024-04-28T11:29:07Z,42.805,6.029,13.3075,4.60167,2470.95,2024-4-28T13:31:48Z
2024-04-28T11:32:10Z,42.805,6.029,13.3072,4.60163,2470.913,2024-4-28T13:34:51Z
2024-04-28T11:35:13Z,42.805,6.029,13.3075,4.60165,2470.964,2024-4-28T13:37:54Z
2024-04-28T11:38:16Z,42.805,6.029,13.3074,4.60165,2470.927,2024-4-28T13:40:57Z
2024-04-28T11:41:19Z,42.805,6.029,13.3074,4.60165,2470.95,2024-4-28T13:44:00Z
2024-04-28T11:44:22Z,42.805,6.029,13.3076,4.60164,2470.904,2024-4-28T13:47:03Z
2024-04-28T11:47:25Z,42.805,6.029,13.3072,4.60163,2470.964,2024-4-28T13:50:07Z
2024-04-28T11:50:28Z,42.805,6.029,13.3071,4.60162,2470.88,2024-4-28T13:53:10Z
2024-04-28T11:53:31Z,42.805,6.029,13.3071,4.60165,2470.95,2024-4-28T13:56:13Z
2024-04-28T11:56:35Z,42.805,6.029,13.3070,4.60162,2470.94,2024-4-28T13:59:16Z
2024-04-28T11:59:38Z,42.805,6.029,13.3068,4.60162,2470.904,2024-4-28T14:02:19Z
2024-04-28T12:02:41Z,42.805,6.029,13.3074,4.60161,2470.927,2024-4-28T14:05:22Z
2024-04-28T12:05:44Z,42.805,6.029,13.3073,4.60161,2470.904,2024-4-28T14:08:25Z
2024-04-28T12:08:47Z,42.805,6.029,13.3070,4.60162,2470.927,2024-4-28T14:11:28Z
2024-04-28T12:11:50Z,42.805,6.029,13.3071,4.60160,2470.94,2024-4-28T14:14:31Z
2024-04-28T12:14:53Z,42.805,6.029,13.3073,4.60162,2470.904,2024-4-28T14:17:34Z
2024-04-28T12:17:56Z,42.805,6.029,13.3071,4.60162,2470.927,2024-4-28T14:20:37Z
2024-04-28T12:20:59Z,42.805,6.029,13.3077,4.60170,2470.894,2024-4-28T14:23:40Z
2024-04-28T12:24:02Z,42.805,6.029,13.3101,4.60183,2470.904,2024-4-28T14:26:44Z
2024-04-28T12:27:05Z,42.805,6.029,13.3092,4.60182,2470.88,2024-4-28T14:29:47Z
2024-04-28T12:30:08Z,42.805,6.029,13.3084,4.60190,2470.917,2024-4-28T14:32:50Z
2024-04-28T12:33:12Z,42.805,6.029,13.3091,4.60194,2470.94,2024-4-28T14:35:53Z
2024-04-28T12:36:15Z,42.805,6.029,13.3082,4.60190,2470.904,2024-4-28T14:38:56Z
2024-04-28T12:39:18Z,42.805,6.029,13.3089,4.60193,2470.917,2024-4-28T14:41:59Z
2024-04-28T12:42:21Z,42.805,6.029,13.3090,4.60201,2470.904,2024-4-28T14:45:02Z
2024-04-28T12:45:24Z,42.805,6.029,13.3092,4.60188,2470.94,2024-4-28T14:48:05Z
2024-04-28T12:48:27Z,42.805,6.029,13.3084,4.60180,2470.927,2024-4-28T14:51:08Z
2024-04-28T12:51:30Z,42.805,6.029,13.3078,4.60185,2470.917,2024-4-28T14:54:11Z
2024-04-28T12:54:33Z,42.805,6.029,13.3084,4.60216,2470.94,2024-4-28T14:57:14Z
2024-04-28T12:57:36Z,42.805,6.029,13.3083,4.60234,2470.904,2024-4-28T15:00:18Z
2024-04-28T13:00:39Z,42.805,6.029,13.3098,4.60214,2470.894,2024-4-28T15:03:21Z
2024-04-28T13:03:42Z,42.805,6.029,13.3096,4.60221,2470.88,2024-4-28T15:06:24Z
2024-04-28T13:06:45Z,42.805,6.029,13.3093,4.60222,2470.871,2024-4-28T15:09:27Z
2024-04-28T13:09:49Z,42.805,6.029,13.3091,4.60198,2470.917,2024-4-28T15:12:30Z
2024-04-28T13:12:52Z,42.805,6.029,13.3087,4.60228,2470.894,2024-4-28T15:15:33Z
2024-04-28T13:15:55Z,42.805,6.029,13.3091,4.60179,2470.917,2024-4-28T15:18:36Z
2024-04-28T13:18:58Z,42.805,6.029,13.3081,4.60201,2470.857,2024-4-28T15:21:39Z
2024-04-28T13:22:01Z,42.805,6.029,13.3085,4.60209,2470.88,2024-4-28T15:24:42Z
2024-04-28T13:25:04Z,42.805,6.029,13.3094,4.60204,2470.894,2024-4-28T15:27:45Z
2024-04-28T13:28:07Z,42.805,6.029,13.3088,4.60202,2470.857,2024-4-28T15:30:48Z
2024-04-28T13:31:10Z,42.805,6.029,13.3090,4.60205,2470.894,2024-4-28T15:33:51Z
2024-04-28T13:34:13Z,42.805,6.029,13.3093,4.60187,2470.894,2024-4-28T15:36:54Z
2024-04-28T13:37:16Z,42.805,6.029,13.3090,4.60205,2470.871,2024-4-28T15:39:58Z
2024-04-28T13:40:19Z,42.805,6.029,13.3093,4.60209,2470.871,2024-4-28T15:43:01Z
2024-04-28T13:43:23Z,42.805,6.029,13.3080,4.60194,2470.857,2024-4-28T15:46:04Z
2024-04-28T13:46:26Z,42.805,6.029,13.3086,4.60166,2470.857,2024-4-28T15:49:07Z
2024-04-28T13:49:29Z,42.805,6.029,13.3070,4.60158,2470.857,2024-4-28T15:52:10Z
2024-04-28T13:52:32Z,42.805,6.029,13.3073,4.60175,2470.871,2024-4-28T15:55:13Z
2024-04-28T13:55:35Z,42.805,6.029,13.3088,4.60174,2470.857,2024-4-28T15:58:16Z
2024-04-28T13:58:38Z,42.805,6.029,13.3082,4.60207,2470.871,2024-4-28T16:01:19Z
2024-04-28T14:01:42Z,42.805,6.029,13.3077,4.60193,2470.857,2024-4-28T16:04:23Z
2024-04-28T14:04:45Z,42.805,6.029,13.3085,4.60214,2470.857,2024-4-28T16:07:26Z
2024-04-28T14:07:48Z,42.805,6.029,13.3079,4.60198,2470.894,2024-4-28T16:10:29Z
2024-04-28T14:10:51Z,42.805,6.029,13.3085,4.60195,2470.857,2024-4-28T16:13:33Z
2024-04-28T14:13:54Z,42.805,6.029,13.3078,4.60215,2470.857,2024-4-28T16:16:36Z
2024-04-28T14:16:58Z,42.805,6.029,13.3080,4.60208,2470.88,2024-4-28T16:19:39Z
2024-04-28T14:20:01Z,42.805,6.029,13.3080,4.60205,2470.833,2024-4-28T16:22:42Z
2024-04-28T14:23:04Z,42.805,6.029,13.3077,4.60216,2470.847,2024-4-28T16:25:45Z
2024-04-28T14:26:07Z,42.805,6.029,13.3081,4.60188,2470.833,2024-4-28T16:28:48Z
2024-04-28T14:29:10Z,42.805,6.029,13.3098,4.60210,2470.81,2024-4-28T16:31:51Z
2024-04-28T14:32:13Z,42.805,6.029,13.3082,4.60202,2470.833,2024-4-28T16:34:54Z
2024-04-28T14:35:16Z,42.805,6.029,13.3085,4.60208,2470.833,2024-4-28T16:37:57Z
2024-04-28T14:38:19Z,42.805,6.029,13.3072,4.60205,2470.847,2024-4-28T16:41:00Z
2024-04-28T14:41:22Z,42.805,6.029,13.3088,4.60216,2470.857,2024-4-28T16:44:03Z
2024-04-28T14:44:25Z,42.805,6.029,13.3084,4.60207,2470.847,2024-4-28T16:47:07Z
2024-04-28T14:47:28Z,42.805,6.029,13.3085,4.60187,2470.833,2024-4-28T16:50:10Z
2024-04-28T14:50:31Z,42.805,6.029,13.3082,4.60208,2470.871,2024-4-28T16:53:13Z
2024-04-28T14:53:35Z,42.805,6.029,13.3073,4.60197,2470.857,2024-4-28T16:56:16Z
2024-04-28T14:56:38Z,42.805,6.029,13.3086,4.60201,2470.857,2024-4-28T16:59:19Z
2024-04-28T14:59:41Z,42.805,6.029,13.3084,4.60221,2470.847,2024-4-28T17:02:22Z
2024-04-28T15:02:44Z,42.805,6.029,13.3086,4.60215,2470.871,2024-4-28T17:05:25Z
2024-04-28T15:05:47Z,42.805,6.029,13.3085,4.60217,2470.833,2024-4-28T17:08:28Z
2024-04-28T15:08:50Z,42.805,6.029,13.3084,4.60199,2470.833,2024-4-28T17:11:31Z
2024-04-28T15:11:53Z,42.805,6.029,13.3078,4.60202,2470.833,2024-4-28T17:14:34Z